QPF
0.01 0.03 0.07 0.07 0.06 0.07 0.08 0.05 0.02 0.02 0.02 0.02 0.01 0.01 0.03 0.03 0.03 0.02 0.02 0.02 0.02 0.02 0.02 0.02 0.02 0.02 0.02 0.02 0.02 0.02 0.02 0.02 0.03 0.04 0.05 0.05 0.05 0.04 0.04 0.03 0.04 0.04 0.05 0.06 0.06 0.07 0.06 0.08 0.12
0.02 0.05 0.08 0.09 0.12 0.11 0.08 0.04 0.02 0.02 0.02 0.01 0.01 0.01 0.02 0.02 0.01 0.01 0.03 0.03 0.01 0.01 0.01 0.01 0.01 0.01 0.01 0.01 0.01 0.02 0.02 0.02 0.02 0.03 0.04 0.05 0.05 0.05 0.04 0.04 0.04 0.06 0.05 0.05 0.06 0.09 0.08 0.08 0.09
0.04 0.05 0.08 0.12 0.16 0.11 0.07 0.07 0.04 0.03 0.03 0.01 0.00 0.00 0.01 0.01 0.01 0.02 0.03 0.03 0.02 0.00 0.00 0.01 0.01 0.01 0.00 0.01 0.01 0.01 0.02 0.02 0.02 0.02 0.03 0.05 0.06 0.05 0.04 0.04 0.05 0.07 0.07 0.06 0.07 0.11 0.11 0.11 0.10
0.06 0.08 0.12 0.15 0.14 0.07 0.04 0.05 0.03 0.02 0.03 0.02 0.01 0.01 0.02 0.01 0.01 0.01 0.02 0.02 0.03 0.02 0.01 0.01 0.01 0.01 0.00 0.00 0.01 0.02 0.02 0.02 0.02 0.03 0.04 0.06 0.05 0.05 0.04 0.04 0.08 0.08 0.09 0.10 0.10 0.11 0.09 0.11 0.10
0.09 0.16 0.21 0.15 0.09 0.07 0.05 0.03 0.02 0.01 0.01 0.02 0.01 0.02 0.03 0.02 0.02 0.02 0.02 0.01 0.02 0.03 0.01 0.00 0.01 0.02 0.01 0.01 0.01 0.01 0.01 0.01 0.01 0.02 0.03 0.05 0.05 0.07 0.06 0.03 0.05 0.07 0.11 0.16 0.15 0.09 0.08 0.08 0.08
0.16 0.26 0.23 0.17 0.10 0.06 0.05 0.03 0.02 0.01 0.02 0.02 0.01 0.02 0.06 0.06 0.05 0.04 0.03 0.01 0.02 0.02 0.01 0.00 0.01 0.02 0.02 0.01 0.01 0.01 0.01 0.01 0.01 0.02 0.03 0.05 0.05 0.05 0.05 0.06 0.07 0.09 0.13 0.15 0.11 0.09 0.09 0.07 0.07
0.13 0.22 0.22 0.19 0.09 0.05 0.03 0.02 0.02 0.01 0.02 0.02 0.01 0.02 0.05 0.07 0.07 0.03 0.03 0.02 0.02 0.01 0.00 0.00 0.01 0.02 0.03 0.02 0.01 0.01 0.01 0.03 0.03 0.02 0.03 0.03 0.04 0.05 0.07 0.08 0.08 0.07 0.08 0.09 0.09 0.10 0.08 0.08 0.10
0.10 0.11 0.14 0.15 0.10 0.05 0.02 0.02 0.01 0.01 0.02 0.02 0.01 0.01 0.03 0.04 0.03 0.02 0.02 0.02 0.02 0.01 0.01 0.01 0.01 0.02 0.02 0.02 0.02 0.02 0.01 0.03 0.04 0.03 0.03 0.02 0.02 0.04 0.07 0.07 0.07 0.07 0.08 0.09 0.10 0.10 0.09 0.10 0.10
0.08 0.09 0.13 0.09 0.09 0.07 0.04 0.02 0.01 0.02 0.05 0.03 0.01 0.01 0.03 0.02 0.02 0.02 0.01 0.01 0.02 0.03 0.02 0.02 0.02 0.03 0.03 0.02 0.02 0.03 0.02 0.03 0.04 0.04 0.04 0.04 0.04 0.06 0.08 0.08 0.08 0.07 0.07 0.09 0.10 0.11 0.12 0.12 0.09
0.06 0.08 0.10 0.06 0.06 0.05 0.03 0.02 0.01 0.02 0.04 0.03 0.01 0.02 0.03 0.02 0.02 0.02 0.01 0.04 0.08 0.06 0.05 0.03 0.02 0.02 0.04 0.04 0.02 0.02 0.02 0.03 0.02 0.04 0.06 0.06 0.06 0.08 0.10 0.10 0.09 0.08 0.09 0.11 0.10 0.09 0.09 0.08 0.07
0.06 0.08 0.06 0.03 0.02 0.02 0.02 0.02 0.02 0.01 0.02 0.03 0.03 0.06 0.04 0.02 0.02 0.01 0.02 0.03 0.11 0.09 0.08 0.05 0.02 0.02 0.02 0.02 0.03 0.02 0.03 0.05 0.05 0.07 0.09 0.08 0.08 0.11 0.16 0.16 0.13 0.11 0.11 0.10 0.10 0.10 0.07 0.08 0.09
0.05 0.04 0.02 0.01 0.01 0.01 0.01 0.01 0.01 0.01 0.02 0.03 0.05 0.09 0.06 0.03 0.02 0.01 0.00 0.01 0.06 0.10 0.08 0.05 0.03 0.03 0.03 0.03 0.03 0.03 0.04 0.03 0.06 0.11 0.13 0.14 0.16 0.13 0.13 0.21 0.23 0.19 0.16 0.13 0.11 0.10 0.08 0.09 0.09
0.04 0.03 0.02 0.02 0.01 0.02 0.01 0.01 0.01 0.00 0.05 0.08 0.04 0.04 0.05 0.04 0.03 0.02 0.01 0.01 0.02 0.05 0.07 0.04 0.03 0.03 0.04 0.03 0.03 0.03 0.03 0.02 0.04 0.06 0.08 0.10 0.15 0.14 0.12 0.11 0.16 0.20 0.20 0.17 0.19 0.13 0.12 0.11 0.10
0.02 0.03 0.03 0.03 0.03 0.02 0.01 0.01 0.01 0.01 0.03 0.02 0.01 0.02 0.03 0.03 0.02 0.02 0.01 0.01 0.01 0.02 0.04 0.03 0.03 0.03 0.06 0.05 0.05 0.05 0.04 0.03 0.03 0.04 0.06 0.05 0.05 0.04 0.05 0.06 0.07 0.10 0.15 0.13 0.10 0.10 0.12 0.12 0.12
0.03 0.03 0.04 0.04 0.03 0.02 0.02 0.02 0.02 0.02 0.01 0.01 0.01 0.01 0.02 0.02 0.02 0.02 0.02 0.01 0.02 0.02 0.01 0.02 0.03 0.03 0.04 0.05 0.04 0.05 0.06 0.05 0.04 0.04 0.04 0.04 0.04 0.03 0.03 0.03 0.06 0.09 0.15 0.15 0.12 0.14 0.13 0.13 0.13
0.05 0.06 0.04 0.04 0.03 0.02 0.02 0.03 0.03 0.01 0.01 0.00 0.01 0.01 0.01 0.02 0.02 0.02 0.03 0.02 0.01 0.02 0.01 0.01 0.01 0.01 0.01 0.02 0.02 0.03 0.04 0.05 0.07 0.05 0.04 0.04 0.04 0.03 0.02 0.02 0.04 0.10 0.16 0.17 0.14 0.15 0.15 0.14 0.13
0.08 0.11 0.07 0.03 0.02 0.02 0.02 0.02 0.02 0.01 0.01 0.01 0.01 0.01 0.02 0.03 0.02 0.03 0.03 0.03 0.02 0.01 0.01 0.01 0.00 0.00 0.01 0.01 0.01 0.01 0.01 0.02 0.05 0.08 0.08 0.04 0.02 0.02 0.01 0.02 0.03 0.05 0.11 0.14 0.11 0.09 0.09 0.10 0.11
0.02 0.03 0.03 0.02 0.01 0.02 0.03 0.02 0.03 0.02 0.01 0.02 0.03 0.03 0.02 0.01 0.01 0.02 0.03 0.04 0.03 0.01 0.01 0.01 0.01 0.01 0.01 0.01 0.01 0.01 0.01 0.02 0.03 0.05 0.08 0.05 0.03 0.02 0.02 0.04 0.03 0.04 0.06 0.06 0.06 0.07 0.06 0.05 0.06
0.02 0.02 0.01 0.01 0.01 0.02 0.05 0.06 0.05 0.05 0.04 0.04 0.05 0.04 0.03 0.02 0.02 0.02 0.03 0.04 0.04 0.03 0.02 0.02 0.01 0.02 0.01 0.01 0.02 0.02 0.02 0.02 0.03 0.04 0.05 0.06 0.04 0.04 0.06 0.06 0.03 0.03 0.03 0.03 0.03 0.04 0.04 0.04 0.04
0.01 0.01 0.01 0.01 0.01 0.02 0.04 0.06 0.05 0.05 0.06 0.05 0.03 0.03 0.04 0.06 0.07 0.06 0.06 0.05 0.04 0.03 0.01 0.01 0.01 0.01 0.02 0.03 0.02 0.02 0.03 0.02 0.04 0.05 0.06 0.06 0.05 0.06 0.08 0.04 0.02 0.02 0.02 0.01 0.02 0.02 0.03 0.03 0.03
0.01 0.01 0.01 0.03 0.03 0.03 0.05 0.06 0.08 0.05 0.05 0.04 0.04 0.04 0.04 0.04 0.05 0.05 0.05 0.04 0.03 0.02 0.01 0.00 0.01 0.01 0.02 0.03 0.02 0.02 0.03 0.03 0.06 0.12 0.17 0.11 0.06 0.05 0.05 0.03 0.02 0.02 0.01 0.01 0.01 0.01 0.01 0.02 0.02
0.01 0.01 0.01 0.02 0.03 0.05 0.06 0.10 0.12 0.06 0.04 0.04 0.04 0.04 0.04 0.03 0.03 0.04 0.04 0.04 0.03 0.02 0.01 0.01 0.02 0.03 0.04 0.04 0.04 0.03 0.03 0.03 0.03 0.09 0.12 0.07 0.05 0.04 0.03 0.03 0.02 0.01 0.01 0.02 0.02 0.03 0.02 0.01 0.01
0.01 0.02 0.03 0.03 0.06 0.11 0.07 0.07 0.12 0.07 0.04 0.04 0.05 0.05 0.05 0.04 0.03 0.03 0.03 0.02 0.03 0.02 0.02 0.02 0.03 0.05 0.04 0.05 0.06 0.06 0.04 0.03 0.02 0.02 0.01 0.02 0.02 0.02 0.02 0.02 0.01 0.02 0.02 0.03 0.04 0.04 0.03 0.02 0.01
0.01 0.02 0.03 0.02 0.03 0.07 0.08 0.06 0.09 0.06 0.03 0.04 0.04 0.04 0.04 0.04 0.04 0.04 0.04 0.03 0.03 0.03 0.03 0.03 0.03 0.04 0.04 0.03 0.03 0.05 0.06 0.06 0.05 0.03 0.02 0.02 0.02 0.02 0.02 0.03 0.02 0.02 0.02 0.03 0.03 0.03 0.02 0.02 0.02
0.01 0.02 0.02 0.02 0.02 0.04 0.06 0.05 0.07 0.06 0.04 0.04 0.05 0.04 0.03 0.03 0.04 0.04 0.04 0.03 0.03 0.03 0.03 0.03 0.04 0.05 0.05 0.04 0.04 0.04 0.05 0.06 0.06 0.06 0.04 0.02 0.02 0.02 0.02 0.02 0.01 0.01 0.00 0.01 0.01 0.03 0.03 0.03 0.03
0.01 0.01 0.02 0.04 0.03 0.04 0.06 0.06 0.07 0.05 0.03 0.05 0.05 0.05 0.03 0.03 0.04 0.03 0.03 0.03 0.04 0.08 0.07 0.06 0.06 0.08 0.07 0.04 0.04 0.03 0.04 0.06 0.07 0.07 0.06 0.03 0.03 0.04 0.04 0.02 0.01 0.01 0.02 0.02 0.02 0.04 0.04 0.02 0.02
0.01 0.01 0.01 0.02 0.02 0.04 0.06 0.04 0.03 0.03 0.03 0.07 0.08 0.06 0.05 0.04 0.03 0.03 0.02 0.02 0.06 0.12 0.10 0.08 0.05 0.04 0.05 0.04 0.04 0.03 0.03 0.04 0.05 0.06 0.06 0.05 0.06 0.06 0.05 0.03 0.03 0.03 0.03 0.02 0.02 0.01 0.01 0.02 0.02
0.01 0.01 0.01 0.01 0.02 0.04 0.06 0.07 0.06 0.04 0.03 0.06 0.07 0.05 0.04 0.03 0.03 0.03 0.03 0.03 0.05 0.09 0.11 0.05 0.03 0.04 0.05 0.07 0.08 0.06 0.04 0.03 0.03 0.03 0.03 0.05 0.05 0.05 0.05 0.05 0.05 0.04 0.04 0.03 0.02 0.02 0.02 0.03 0.03
0.01 0.01 0.01 0.01 0.01 0.02 0.06 0.08 0.05 0.03 0.04 0.06 0.03 0.02 0.02 0.02 0.03 0.04 0.05 0.06 0.05 0.07 0.11 0.10 0.06 0.06 0.08 0.11 0.13 0.08 0.06 0.05 0.05 0.03 0.03 0.04 0.05 0.06 0.07 0.06 0.06 0.06 0.05 0.05 0.05 0.04 0.04 0.04 0.03
0.01 0.01 0.01 0.01 0.01 0.01 0.07 0.10 0.05 0.03 0.07 0.05 0.03 0.05 0.06 0.07 0.04 0.03 0.04 0.04 0.04 0.04 0.06 0.09 0.11 0.10 0.10 0.11 0.13 0.10 0.08 0.07 0.08 0.05 0.03 0.03 0.05 0.07 0.08 0.08 0.07 0.07 0.07 0.06 0.05 0.05 0.06 0.06 0.05
MSLP
1008.28 1009.21 1010.20 1011.08 1011.71 1011.99 1011.91 1011.54 1010.99 1010.43 1010.04 1009.92 1010.11 1010.58 1011.24 1011.94 1012.54 1012.92 1013.05 1012.94 1012.67 1012.35 1012.09 1011.96 1012.02 1012.23 1012.53 1012.85 1013.11 1013.28 1013.33 1013.31 1013.25 1013.23 1013.28 1013.42 1013.62 1013.85 1014.06 1014.20 1014.23 1014.17 1014.02 1013.85 1013.69 1013.59 1013.57 1013.64 1013.77
1008.73 1009.78 1010.80 1011.64 1012.15 1012.28 1012.02 1011.48 1010.78 1010.12 1009.66 1009.49 1009.66 1010.12 1010.77 1011.47 1012.08 1012.50 1012.68 1012.66 1012.49 1012.27 1012.11 1012.06 1012.16 1012.39 1012.69 1013.00 1013.25 1013.41 1013.48 1013.49 1013.49 1013.51 1013.59 1013.73 1013.92 1014.11 1014.27 1014.35 1014.33 1014.23 1014.08 1013.91 1013.77 1013.69 1013.69 1013.76 1013.88
1009.23 1010.34 1011.35 1012.09 1012.47 1012.44 1012.04 1011.38 1010.61 1009.91 1009.43 1009.27 1009.44 1009.89 1010.52 1011.19 1011.78 1012.20 1012.41 1012.44 1012.35 1012.22 1012.15 1012.18 1012.33 1012.58 1012.88 1013.17 1013.41 1013.56 1013.65 1013.69 1013.71 1013.76 1013.86 1014.00 1014.16 1014.30 1014.40 1014.42 1014.37 1014.26 1014.11 1013.97 1013.86 1013.81 1013.83 1013.90 1014.01
1009.73 1010.84 1011.77 1012.39 1012.63 1012.46 1011.97 1011.26 1010.49 1009.83 1009.42 1009.31 1009.51 1009.96 1010.55 1011.17 1011.70 1012.07 1012.27 1012.32 1012.28 1012.24 1012.24 1012.34 1012.53 1012.79 1013.08 1013.35 1013.57 1013.72 1013.81 1013.86 1013.92 1013.99 1014.09 1014.22 1014.34 1014.44 1014.48 1014.47 1014.39 1014.28 1014.16 1014.05 1013.99 1013.97 1014.00 1014.06 1014.14
1010.17 1011.21 1012.02 1012.50 1012.60 1012.34 1011.81 1011.13 1010.45 1009.92 1009.62 1009.62 1009.87 1010.32 1010.87 1011.40 1011.84 1012.13 1012.28 1012.33 1012.32 1012.32 1012.39 1012.53 1012.75 1013.01 1013.28 1013.52 1013.71 1013.84 1013.94 1014.01 1014.08 1014.17 1014.28 1014.40 1014.50 1014.56 1014.56 1014.52 1014.43 1014.33 1014.24 1014.18 1014.15 1014.16 1014.20 1014.23 1014.26
1010.50 1011.42 1012.08 1012.41 1012.40 1012.09 1011.59 1011.00 1010.48 1010.13 1010.02 1010.15 1010.48 1010.94 1011.42 1011.86 1012.18 1012.37 1012.45 1012.46 1012.45 1012.48 1012.58 1012.75 1012.97 1013.22 1013.46 1013.66 1013.81 1013.92 1014.01 1014.09 1014.19 1014.31 1014.44 1014.56 1014.64 1014.68 1014.67 1014.60 1014.52 1014.43 1014.36 1014.33 1014.33 1014.35 1014.37 1014.38 1014.35
1010.69 1011.47 1011.97 1012.16 1012.06 1011.75 1011.32 1010.89 1010.57 1010.44 1010.53 1010.81 1011.22 1011.68 1012.12 1012.45 1012.66 1012.74 1012.73 1012.69 1012.67 1012.70 1012.80 1012.98 1013.19 1013.40 1013.60 1013.75 1013.86 1013.94 1014.03 1014.13 1014.25 1014.41 1014.56 1014.70 1014.79 1014.82 1014.80 1014.72 1014.63 1014.55 1014.49 1014.47 1014.47 1014.49 1014.49 1014.45 1014.37
1010.75 1011.38 1011.73 1011.81 1011.66 1011.36 1011.03 1010.77 1010.67 1010.76 1011.05 1011.47 1011.96 1012.43 1012.81 1013.06 1013.16 1013.15 1013.06 1012.98 1012.93 1012.95 1013.05 1013.21 1013.39 1013.56 1013.70 1013.79 1013.86 1013.92 1014.00 1014.11 1014.27 1014.46 1014.66 1014.82 1014.93 1014.97 1014.94 1014.86 1014.76 1014.67 1014.60 1014.57 1014.55 1014.54 1014.51 1014.43 1014.30
1010.70 1011.21 1011.44 1011.43 1011.25 1010.99 1010.77 1010.67 1010.75 1011.04 1011.49 1012.03 1012.58 1013.05 1013.39 1013.57 1013.59 1013.51 1013.38 1013.26 1013.20 1013.22 1013.30 1013.44 1013.58 1013.70 1013.78 1013.82 1013.84 1013.87 1013.95 1014.08 1014.26 1014.49 1014.72 1014.92 1015.05 1015.10 1015.07 1014.98 1014.87 1014.75 1014.66 1014.60 1014.55 1014.50 1014.43 1014.31 1014.14
1010.61 1011.03 1011.17 1011.10 1010.91 1010.69 1010.56 1010.58 1010.81 1011.23 1011.78 1012.39 1012.97 1013.44 1013.75 1013.88 1013.87 1013.76 1013.61 1013.49 1013.44 1013.46 1013.54 1013.65 1013.76 1013.83 1013.86 1013.85 1013.83 1013.84 1013.91 1014.04 1014.25 1014.50 1014.75 1014.97 1015.12 1015.18 1015.16 1015.06 1014.93 1014.79 1014.66 1014.56 1014.47 1014.39 1014.27 1014.13 1013.94
1010.54 1010.90 1010.99 1010.89 1010.69 1010.51 1010.43 1010.53 1010.82 1011.30 1011.90 1012.53 1013.10 1013.55 1013.84 1013.97 1013.95 1013.86 1013.74 1013.65 1013.62 1013.66 1013.74 1013.84 1013.92 1013.96 1013.95 1013.91 1013.86 1013.85 1013.90 1014.03 1014.24 1014.49 1014.75 1014.98 1015.14 1015.21 1015.18 1015.08 1014.94 1014.78 1014.62 1014.48 1014.36 1014.23 1014.10 1013.93 1013.74
1010.54 1010.87 1010.94 1010.83 1010.64 1010.47 1010.42 1010.53 1010.84 1011.30 1011.87 1012.46 1013.00 1013.42 1013.70 1013.83 1013.85 1013.81 1013.75 1013.72 1013.73 1013.80 1013.90 1014.00 1014.06 1014.08 1014.05 1013.99 1013.93 1013.90 1013.94 1014.06 1014.24 1014.48 1014.72 1014.94 1015.09 1015.16 1015.14 1015.04 1014.90 1014.74 1014.57 1014.41 1014.25 1014.11 1013.94 1013.77 1013.58
1010.62 1010.95 1011.03 1010.93 1010.76 1010.60 1010.54 1010.63 1010.88 1011.28 1011.76 1012.26 1012.73 1013.11 1013.38 1013.55 1013.62 1013.65 1013.67 1013.70 1013.78 1013.88 1013.99 1014.09 1014.16 1014.18 1014.15 1014.10 1014.04 1014.01 1014.03 1014.12 1014.27 1014.46 1014.66 1014.84 1014.98 1015.04 1015.03 1014.96 1014.84 1014.69 1014.53 1014.37 1014.21 1014.04 1013.87 1013.69 1013.50
1010.79 1011.12 1011.22 1011.15 1011.00 1010.86 1010.79 1010.84 1011.01 1011.29 1011.65 1012.04 1012.41 1012.74 1013.01 1013.20 1013.34 1013.45 1013.54 1013.64 1013.76 1013.88 1014.01 1014.12 1014.19 1014.23 1014.22 1014.20 1014.16 1014.14 1014.16 1014.21 1014.31 1014.44 1014.58 1014.71 1014.81 1014.87 1014.88 1014.84 1014.76 1014.65 1014.53 1014.39 1014.24 1014.08 1013.90 1013.72 1013.53
1010.99 1011.31 1011.44 1011.42 1011.33 1011.23 1011.16 1011.16 1011.24 1011.40 1011.63 1011.89 1012.16 1012.43 1012.68 1012.90 1013.10 1013.27 1013.42 1013.57 1013.71 1013.84 1013.96 1014.07 1014.15 1014.21 1014.25 1014.26 1014.27 1014.28 1014.29 1014.32 1014.36 1014.42 1014.48 1014.55 1014.62 1014.67 1014.70 1014.71 1014.69 1014.64 1014.57 1014.47 1014.35 1014.20 1014.03 1013.85 1013.65
1011.15 1011.46 1011.63 1011.69 1011.69 1011.66 1011.62 1011.61 1011.62 1011.66 1011.75 1011.88 1012.05 1012.25 1012.47 1012.71 1012.94 1013.16 1013.35 1013.52 1013.65 1013.76 1013.86 1013.95 1014.03 1014.12 1014.20 1014.28 1014.34 1014.39 1014.42 1014.42 1014.41 1014.40 1014.39 1014.39 1014.42 1014.46 1014.52 1014.58 1014.62 1014.65 1014.65 1014.60 1014.51 1014.38 1014.22 1014.04 1013.84
1011.20 1011.51 1011.74 1011.91 1012.04 1012.12 1012.16 1012.16 1012.13 1012.08 1012.04 1012.04 1012.10 1012.22 1012.41 1012.64 1012.90 1013.14 1013.34 1013.50 1013.60 1013.67 1013.72 1013.77 1013.84 1013.95 1014.09 1014.23 1014.36 1014.46 1014.52 1014.52 1014.47 1014.39 1014.31 1014.25 1014.23 1014.26 1014.34 1014.45 1014.57 1014.66 1014.72 1014.73 1014.67 1014.57 1014.42 1014.25 1014.06
1011.12 1011.42 1011.74 1012.07 1012.37 1012.62 1012.77 1012.82 1012.77 1012.64 1012.48 1012.35 1012.29 1012.32 1012.46 1012.67 1012.92 1013.17 1013.37 1013.50 1013.56 1013.57 1013.56 1013.57 1013.62 1013.74 1013.92 1014.13 1014.33 1014.50 1014.59 1014.59 1014.52 1014.39 1014.25 1014.14 1014.08 1014.10 1014.19 1014.34 1014.50 1014.66 1014.77 1014.82 1014.80 1014.71 1014.58 1014.43 1014.26
1010.90 1011.24 1011.69 1012.21 1012.73 1013.17 1013.46 1013.58 1013.51 1013.30 1013.01 1012.73 1012.54 1012.46 1012.53 1012.71 1012.95 1013.20 1013.39 1013.50 1013.52 1013.47 1013.40 1013.36 1013.39 1013.51 1013.72 1013.99 1014.26 1014.49 1014.63 1014.65 1014.57 1014.41 1014.23 1014.07 1013.97 1013.97 1014.06 1014.23 1014.43 1014.62 1014.77 1014.85 1014.85 1014.79 1014.68 1014.55 1014.42
1010.59 1011.02 1011.65 1012.40 1013.16 1013.82 1014.26 1014.43 1014.34 1014.02 1013.58 1013.13 1012.77 1012.56 1012.54 1012.67 1012.90 1013.15 1013.35 1013.45 1013.44 1013.36 1013.24 1013.16 1013.17 1013.29 1013.52 1013.83 1014.16 1014.45 1014.63 1014.69 1014.61 1014.44 1014.23 1014.03 1013.90 1013.88 1013.96 1014.12 1014.33 1014.54 1014.70 1014.79 1014.81 1014.76 1014.68 1014.59 1014.52
1010.29 1010.87 1011.72 1012.74 1013.75 1014.61 1015.18 1015.38 1015.22 1014.75 1014.11 1013.45 1012.89 1012.52 1012.39 1012.47 1012.68 1012.95 1013.18 1013.30 1013.31 1013.22 1013.09 1012.98 1012.97 1013.08 1013.33 1013.67 1014.04 1014.37 1014.60 1014.69 1014.63 1014.46 1014.24 1014.02 1013.86 1013.81 1013.86 1014.01 1014.21 1014.41 1014.57 1014.67 1014.69 1014.66 1014.60 1014.55 1014.54
1010.11 1010.89 1012.00 1013.29 1014.55 1015.58 1016.23 1016.40 1016.12 1015.45 1014.57 1013.65 1012.86 1012.31 1012.05 1012.06 1012.27 1012.57 1012.85 1013.04 1013.09 1013.03 1012.91 1012.81 1012.79 1012.90 1013.15 1013.50 1013.90 1014.26 1014.53 1014.65 1014.61 1014.45 1014.22 1013.99 1013.82 1013.74 1013.77 1013.89 1014.07 1014.25 1014.40 1014.48 1014.50 1014.48 1014.45 1014.44 1014.48
1010.11 1011.14 1012.53 1014.07 1015.53 1016.68 1017.35 1017.45 1016.99 1016.08 1014.91 1013.72 1012.67 1011.92 1011.53 1011.48 1011.68 1012.03 1012.38 1012.65 1012.78 1012.79 1012.71 1012.62 1012.61 1012.72 1012.96 1013.31 1013.72 1014.10 1014.39 1014.53 1014.52 1014.38 1014.16 1013.93 1013.75 1013.65 1013.65 1013.75 1013.90 1014.06 1014.19 1014.26 1014.28 1014.26 1014.25 1014.28 1014.36
1010.35 1011.63 1013.27 1015.02 1016.63 1017.83 1018.46 1018.43 1017.76 1016.58 1015.14 1013.66 1012.37 1011.43 1010.91 1010.79 1011.00 1011.39 1011.82 1012.18 1012.40 1012.48 1012.46 1012.41 1012.41 1012.51 1012.75 1013.09 1013.48 1013.86 1014.16 1014.33 1014.34 1014.22 1014.02 1013.80 1013.61 1013.51 1013.50 1013.57 1013.70 1013.83 1013.95 1014.01 1014.03 1014.02 1014.02 1014.07 1014.19
1010.78 1012.29 1014.13 1016.02 1017.70 1018.89 1019.43 1019.23 1018.34 1016.93 1015.23 1013.51 1012.02 1010.91 1010.28 1010.11 1010.31 1010.74 1011.24 1011.68 1011.99 1012.15 1012.18 1012.17 1012.18 1012.27 1012.49 1012.81 1013.18 1013.55 1013.85 1014.03 1014.06 1013.96 1013.79 1013.58 1013.40 1013.29 1013.27 1013.33 1013.44 1013.57 1013.67 1013.74 1013.76 1013.77 1013.78 1013.84 1013.97
1011.32 1013.00 1014.95 1016.90 1018.55 1019.67 1020.08 1019.72 1018.66 1017.05 1015.18 1013.30 1011.67 1010.46 1009.76 1009.55 1009.75 1010.20 1010.73 1011.23 1011.59 1011.80 1011.88 1011.89 1011.91 1012.00 1012.19 1012.48 1012.83 1013.17 1013.46 1013.64 1013.68 1013.61 1013.45 1013.26 1013.09 1012.99 1012.97 1013.02 1013.13 1013.26 1013.37 1013.45 1013.49 1013.50 1013.53 1013.59 1013.71
1011.86 1013.61 1015.57 1017.46 1019.02 1020.01 1020.28 1019.79 1018.61 1016.91 1014.97 1013.05 1011.39 1010.16 1009.44 1009.21 1009.40 1009.84 1010.38 1010.89 1011.27 1011.50 1011.59 1011.61 1011.62 1011.70 1011.86 1012.12 1012.43 1012.75 1013.02 1013.19 1013.24 1013.18 1013.03 1012.86 1012.71 1012.61 1012.59 1012.65 1012.77 1012.90 1013.03 1013.13 1013.20 1013.24 1013.27 1013.33 1013.43
1012.28 1013.98 1015.83 1017.57 1018.96 1019.79 1019.92 1019.35 1018.14 1016.47 1014.59 1012.75 1011.18 1010.02 1009.34 1009.14 1009.31 1009.72 1010.23 1010.70 1011.05 1011.26 1011.34 1011.35 1011.35 1011.41 1011.55 1011.77 1012.05 1012.34 1012.58 1012.73 1012.77 1012.71 1012.58 1012.42 1012.27 1012.18 1012.17 1012.23 1012.36 1012.51 1012.67 1012.80 1012.90 1012.96 1013.02 1013.08 1013.16
1012.49 1014.02 1015.65 1017.14 1018.29 1018.94 1018.96 1018.37 1017.23 1015.71 1014.03 1012.41 1011.03 1010.03 1009.46 1009.30 1009.47 1009.84 1010.27 1010.67 1010.95 1011.11 1011.15 1011.14 1011.13 1011.17 1011.29 1011.48 1011.73 1011.98 1012.19 1012.32 1012.34 1012.27 1012.14 1011.97 1011.83 1011.74 1011.73 1011.81 1011.94 1012.12 1012.30 1012.47 1012.60 1012.71 1012.78 1012.85 1012.92
1012.46 1013.73 1015.04 1016.22 1017.10 1017.54 1017.49 1016.93 1015.95 1014.67 1013.29 1011.98 1010.89 1010.13 1009.71 1009.62 1009.79 1010.10 1010.45 1010.75 1010.95 1011.04 1011.04 1011.00 1010.98 1011.01 1011.12 1011.30 1011.52 1011.74 1011.92 1012.01 1012.01 1011.91 1011.76 1011.59 1011.45 1011.36 1011.35 1011.42 1011.57 1011.76 1011.97 1012.17 1012.34 1012.48 1012.58 1012.66 1012.72
Thickness
5824 5820 5817 5807 5789 5774 5775 5791 5804 5807 5810 5819 5822 5815 5803 5794 5785 5775 5800 5807 5804 5801 5800 5799 5798 5797 5797 5796 5795 5795 5794 5794 5794 5793 5793 5792 5790 5789 5788 5787 5786 5784 5783 5782 5780 5780 5779 5778 5777
5826 5822 5813 5799 5779 5764 5776 5799 5805 5811 5818 5825 5823 5816 5806 5799 5805 5802 5804 5806 5806 5803 5802 5800 5799 5798 5798 5797 5796 5795 5794 5793 5793 5792 5791 5791 5790 5789 5788 5787 5785 5784 5783 5781 5780 5779 5778 5777 5776
5828 5824 5805 5791 5778 5773 5783 5805 5812 5821 5828 5827 5819 5817 5809 5802 5807 5807 5809 5810 5807 5805 5803 5802 5800 5799 5798 5797 5796 5795 5794 5794 5793 5792 5791 5790 5790 5789 5788 5786 5785 5784 5782 5781 5780 5779 5778 5777 5776
5827 5814 5802 5786 5781 5796 5805 5813 5821 5820 5823 5827 5820 5809 5812 5819 5817 5815 5814 5812 5808 5805 5804 5803 5801 5800 5799 5797 5797 5796 5795 5794 5793 5792 5791 5790 5789 5788 5787 5786 5785 5784 5782 5781 5780 5779 5778 5777 5776
5825 5806 5788 5780 5790 5808 5821 5827 5829 5821 5819 5821 5819 5804 5804 5819 5824 5820 5816 5813 5809 5806 5805 5804 5802 5801 5799 5798 5797 5796 5795 5794 5793 5792 5791 5790 5789 5788 5787 5785 5784 5783 5782 5780 5779 5778 5778 5777 5776
5812 5801 5782 5778 5796 5814 5826 5833 5831 5822 5819 5819 5815 5805 5802 5818 5819 5817 5816 5813 5810 5807 5805 5804 5803 5801 5800 5798 5797 5796 5795 5794 5793 5791 5790 5789 5788 5787 5786 5785 5784 5783 5782 5781 5780 5779 5778 5777 5776
5808 5797 5785 5791 5800 5811 5825 5836 5830 5822 5817 5819 5821 5804 5803 5812 5819 5819 5816 5813 5810 5808 5805 5804 5802 5801 5800 5799 5798 5796 5795 5794 5793 5792 5790 5789 5788 5786 5785 5784 5783 5783 5782 5781 5780 5779 5778 5777 5776
5823 5804 5793 5797 5803 5812 5831 5839 5838 5830 5823 5832 5828 5807 5801 5813 5821 5819 5815 5811 5808 5807 5805 5804 5803 5802 5800 5799 5798 5796 5795 5793 5792 5791 5790 5788 5787 5786 5785 5784 5783 5783 5782 5781 5780 5779 5778 5777 5776
5831 5799 5789 5802 5810 5818 5835 5835 5839 5843 5834 5831 5832 5825 5823 5824 5822 5815 5809 5806 5805 5805 5804 5804 5803 5802 5800 5799 5798 5796 5794 5792 5791 5790 5790 5788 5787 5786 5785 5784 5783 5782 5782 5781 5780 5779 5778 5777 5776
5820 5795 5805 5826 5831 5830 5837 5837 5838 5832 5823 5821 5823 5825 5828 5824 5818 5811 5806 5803 5803 5802 5803 5804 5804 5802 5800 5799 5797 5795 5794 5792 5791 5789 5790 5789 5787 5786 5785 5784 5784 5783 5782 5781 5780 5779 5778 5777 5776
5823 5812 5826 5837 5844 5842 5839 5839 5842 5828 5815 5820 5820 5820 5823 5821 5816 5812 5810 5809 5808 5807 5806 5805 5805 5803 5801 5799 5797 5795 5794 5792 5790 5790 5789 5788 5787 5785 5785 5784 5783 5782 5781 5780 5779 5778 5777 5776 5775
5829 5833 5840 5843 5850 5846 5841 5840 5837 5833 5830 5838 5836 5832 5826 5819 5815 5813 5812 5811 5811 5809 5808 5807 5807 5805 5803 5800 5798 5795 5793 5792 5790 5790 5789 5788 5786 5785 5784 5783 5782 5781 5780 5779 5778 5777 5776 5775 5774
5831 5835 5847 5852 5852 5851 5848 5841 5838 5835 5842 5843 5839 5832 5826 5822 5818 5818 5818 5816 5814 5811 5810 5809 5808 5806 5804 5801 5799 5796 5794 5792 5791 5790 5789 5788 5786 5784 5784 5782 5781 5780 5779 5778 5777 5776 5775 5774 5773
5838 5841 5846 5850 5849 5850 5842 5839 5837 5835 5843 5839 5834 5829 5827 5824 5822 5818 5817 5815 5814 5813 5811 5811 5809 5807 5805 5802 5800 5797 5795 5793 5791 5790 5788 5787 5786 5784 5783 5781 5780 5779 5779 5778 5777 5776 5774 5773 5771
5845 5834 5836 5843 5845 5845 5841 5825 5830 5841 5842 5834 5831 5829 5826 5825 5825 5822 5820 5818 5817 5816 5814 5812 5811 5809 5806 5803 5801 5799 5796 5793 5791 5789 5787 5786 5785 5783 5782 5780 5779 5779 5778 5777 5776 5774 5772 5770 5769
5835 5822 5813 5833 5843 5844 5830 5806 5831 5843 5839 5831 5831 5829 5825 5823 5826 5827 5825 5822 5820 5818 5816 5814 5814 5809 5807 5804 5802 5798 5796 5793 5790 5788 5786 5785 5784 5782 5780 5778 5777 5777 5776 5775 5773 5771 5769 5767 5766
5814 5802 5807 5823 5843 5842 5827 5813 5831 5841 5837 5830 5830 5829 5826 5823 5825 5828 5828 5825 5823 5820 5817 5814 5813 5809 5806 5804 5801 5798 5795 5792 5789 5787 5785 5783 5782 5780 5778 5776 5775 5774 5773 5772 5771 5768 5767 5764 5763
5800 5804 5808 5813 5834 5835 5824 5820 5832 5839 5836 5830 5829 5828 5826 5824 5825 5829 5830 5829 5825 5822 5819 5815 5812 5809 5806 5803 5799 5795 5792 5790 5788 5786 5784 5783 5781 5778 5777 5775 5773 5772 5770 5768 5767 5765 5764 5762 5761
5820 5813 5808 5818 5837 5827 5818 5817 5826 5833 5831 5827 5825 5825 5825 5826 5830 5830 5830 5828 5824 5820 5817 5814 5810 5808 5805 5800 5796 5791 5788 5787 5786 5785 5784 5781 5779 5777 5775 5773 5771 5769 5766 5765 5764 5763 5761 5759 5758
5821 5809 5809 5819 5835 5825 5814 5813 5823 5829 5829 5829 5827 5826 5826 5825 5826 5826 5826 5824 5821 5818 5816 5813 5811 5808 5806 5802 5798 5794 5790 5787 5785 5784 5782 5780 5778 5776 5774 5771 5769 5767 5764 5762 5761 5759 5756 5755 5755
5815 5809 5812 5813 5822 5822 5811 5800 5808 5820 5827 5829 5830 5830 5829 5827 5824 5824 5823 5821 5820 5817 5816 5816 5812 5809 5806 5803 5798 5794 5789 5785 5782 5780 5778 5778 5776 5774 5772 5770 5768 5765 5762 5759 5758 5756 5753 5749 5750
5806 5826 5826 5818 5801 5786 5797 5769 5793 5805 5812 5819 5823 5825 5826 5827 5825 5824 5823 5821 5820 5819 5819 5817 5813 5810 5806 5803 5798 5791 5784 5779 5779 5778 5777 5775 5774 5772 5770 5768 5766 5763 5760 5757 5756 5754 5751 5748 5744
5821 5833 5825 5815 5799 5785 5788 5771 5779 5798 5799 5810 5820 5824 5826 5828 5828 5825 5823 5823 5823 5822 5819 5817 5812 5808 5806 5802 5798 5792 5785 5782 5779 5777 5774 5772 5771 5770 5767 5765 5763 5760 5757 5755 5753 5751 5749 5747 5743
5835 5822 5811 5799 5784 5762 5776 5769 5769 5788 5800 5811 5820 5824 5826 5827 5826 5824 5825 5824 5822 5821 5818 5814 5809 5805 5803 5800 5796 5791 5785 5781 5776 5772 5769 5768 5766 5765 5764 5762 5760 5757 5754 5752 5750 5748 5746 5743 5741
5823 5790 5762 5758 5748 5752 5775 5770 5774 5802 5813 5816 5818 5820 5823 5824 5822 5819 5820 5819 5818 5816 5815 5813 5808 5803 5800 5797 5793 5789 5785 5781 5776 5771 5768 5764 5762 5760 5760 5759 5756 5754 5751 5749 5746 5744 5741 5739 5737
5812 5793 5760 5744 5739 5749 5766 5764 5784 5811 5818 5821 5822 5822 5821 5820 5820 5819 5819 5819 5817 5815 5813 5810 5806 5801 5798 5794 5791 5787 5784 5779 5775 5771 5767 5763 5760 5758 5757 5755 5752 5750 5747 5745 5742 5739 5737 5735 5733
5808 5795 5793 5766 5756 5744 5752 5768 5788 5808 5809 5813 5815 5816 5815 5816 5817 5817 5817 5816 5814 5812 5810 5807 5803 5797 5794 5792 5788 5783 5780 5776 5772 5768 5765 5761 5758 5756 5753 5750 5747 5745 5743 5740 5737 5734 5732 5730 5728
5822 5807 5781 5761 5742 5732 5744 5756 5765 5785 5794 5803 5807 5810 5811 5814 5814 5813 5813 5812 5810 5810 5807 5804 5801 5796 5794 5790 5786 5781 5777 5774 5770 5765 5760 5757 5755 5752 5749 5745 5742 5739 5737 5734 5731 5728 5726 5723 5721
5806 5798 5782 5764 5756 5736 5729 5750 5791 5790 5797 5798 5804 5809 5810 5811 5811 5810 5810 5808 5806 5805 5803 5799 5796 5793 5789 5786 5781 5777 5773 5769 5766 5762 5758 5754 5751 5748 5744 5741 5737 5734 5730 5728 5725 5723 5720 5717 5715
5811 5799 5782 5760 5753 5747 5739 5753 5802 5800 5802 5802 5802 5807 5809 5810 5809 5808 5807 5804 5801 5799 5797 5794 5791 5788 5785 5782 5777 5772 5768 5764 5760 5756 5753 5750 5746 5743 5740 5736 5732 5729 5725 5722 5719 5717 5714 5711 5708